Preview of NWS' New Version of Forecast
This preview is not operational and should not be used for support decisions.

Regional Weather Roundup (RWR)

Issued by National Weather Service (NWS)

                            
000
ASUS44 KJAN 182210
RWRMS 

MISSISSIPPI HOURLY WEATHER ROUNDUP
NATIONAL WEATHER SERVICE JACKSON MS
500 PM CDT WED SEP 18 2019

NOTE: "FAIR: INDICATES FEW OR NO CLOUDS BELOW 12,000 FEET WITH NO
SIGNIFICANT WEATHER AND/OR OBSTRUCTIONS TO VISIBILITY.

MSZ001>002-007>008-010>013-018>021-025>028-034>036-182300-
NORTHWEST MISSISSIPPI
  
CITY           SKY/WX    TMP DP  RH WIND       PRES   REMARKS
BATESVILLE     FAIR      95  64  36 VRB5      29.94S HX  97           
CLARKSDALE       N/A     97  63  32 CALM      29.93F HX  98           
CLEVELAND      FAIR      96  63  34 S5        29.91F HX  97           
GREENWOOD      FAIR      98  64  32 E7        29.92F HX 100           
GREENVILLE     FAIR      97  65  34 E3        29.90F HX  99           
OLIVE BRANCH   MOSUNNY   95  63  34 N6        29.95F HX  96           
OXFORD         FAIR      97  57  26 NE10      29.96S HX  95           
TUNICA           N/A     93  63  36 E3        29.95S HX  94           
WINONA         FAIR      95  64  34 CALM      29.94S HX  97           
$$

MSZ003>006-009-014>017-022>024-029>033-037>039-182300-
NORTHEAST MISSISSIPPI
  
CITY           SKY/WX    TMP DP  RH WIND       PRES   REMARKS
ABERDEEN       FAIR      95  77  55 N6        29.95S HX 109           
COLUMBUS AFB   FAIR      96  63  33 CALM      29.93F HX  97           
CORINTH        FAIR      93  64  38 NE5       29.95F HX  95           
GOLDN TRIANGLE FAIR      97  66  36 E5        29.94F HX 100           
STARKVILLE     FAIR     N/A N/A N/A N6        29.95F                  
TUPELO         FAIR      97  58  27 N5        29.94F HX  96           
$$

MSZ040-058-182300-
CENTRAL MISSISSIPPI
  
CITY           SKY/WX    TMP DP  RH WIND       PRES   REMARKS
JACKSON INTL   FAIR      94  64  37 S6        29.93F HX  95           
JACKSON HAWKNS FAIR      94  66  39 S3        29.94S HX  97           
MADISON        FAIR      91  63  38 S3        29.94S HX  92           
MERIDIAN KEY   CLOUDY   100  63  29 NW7       29.92S HX 102           
MERIDIAN NAS   FAIR      97  64  33 N6        29.93S HX  99           
RAYMOND          N/A     95  66  38 S6        29.93S HX  98           
VICKSBURG VKS  CLEAR     93  68  43 S5        29.93S HX  97           
$$

MSZ059>079-182300-
SOUTH MISSISSIPPI
  
CITY           SKY/WX    TMP DP  RH WIND       PRES   REMARKS
BROOKHAVEN     FAIR      91  72  52 CALM      29.96S HX  98           
HATTIESBURG    FAIR      96  64  34 SW8       29.93F HX  98           
LAUREL         CLEAR     96  63  33 S6        29.92F HX  97           
MCCOMB         FAIR      91  67  44 S6        29.95R HX  94           
NATCHEZ        LGT RAIN  77  73  87 SW10G21   29.99R                  
PINE BELT      FAIR      94  69  44 VRB3      29.94F HX  99           
$$

MSZ080>082-182300-
COASTAL MISSISSIPPI
  
CITY           SKY/WX    TMP DP  RH WIND       PRES   REMARKS
BILOXI         FAIR      90  72  55 SW9       29.93F HX  97           
PASCAGOULA     FAIR      91  72  53 SW7       29.92F HX  98           
GULFPORT       FAIR      90  69  50 S7        29.93S HX  94           
$$

LAZ007>009-015>016-023>026-182300-
NORTHEAST LOUISIANA
  
CITY           SKY/WX    TMP DP  RH WIND       PRES   REMARKS
BASTROP        MOCLDY    91  66  44 S3        29.94R HX  93           
TALLULAH/VBURG FAIR      94  69  44 S9        29.93R HX  99           
VIDALIA        CLOUDY   N/A N/A N/A S6        29.98R                  
$$